iso_date,epoch_date,Year,Hour,Min,DOY,POS_DOY,Lat,Lon,BP,Ts,Ta,has_bp,has_ts,has_ta,BuoyID,Buoy_Type,Buoy_Owner,Logistics,Hemisphere
2012-08-28T16:30:17Z,1346171417,2012,16,30,241.6877,241.6877,71.35195,-158.56456,-999.00,0.4,-999.0,no,yes,no,300234011887340,SVP,AWI,unknown,North
2012-08-28T17:00:14Z,1346173214,2012,17,0,241.7085,241.7085,71.35214,-158.5635,-999.00,0.6,-999.0,no,yes,no,300234011887340,SVP,AWI,unknown,North
2012-08-28T17:31:03Z,1346175063,2012,17,31,241.7299,241.7299,71.3537,-158.54777,-999.00,0.7,-999.0,no,yes,no,300234011887340,SVP,AWI,unknown,North
2012-08-28T18:00:43Z,1346176843,2012,18,0,241.7505,241.7505,71.35419,-158.52679,-999.00,0.8,-999.0,no,yes,no,300234011887340,SVP,AWI,unknown,North
2012-08-28T18:30:14Z,1346178614,2012,18,30,241.771,241.771,71.35359,-158.52032,-999.00,0.95,-999.0,no,yes,no,300234011887340,SVP,AWI,unknown,North
2012-08-28T19:01:03Z,1346180463,2012,19,1,241.7924,241.7924,71.35332,-158.50513,-999.00,1.0,-999.0,no,yes,no,300234011887340,SVP,AWI,unknown,North
2012-08-28T19:30:08Z,1346182209,2012,19,30,241.8126,241.8126,71.35317,-158.49375,-999.00,1.05,-999.0,no,yes,no,300234011887340,SVP,AWI,unknown,North
2012-08-28T20:00:05Z,1346184006,2012,20,0,241.8334,241.8334,71.35243,-158.48095,-999.00,1.1,-999.0,no,yes,no,300234011887340,SVP,AWI,unknown,North
2012-08-28T20:30:11Z,1346185812,2012,20,30,241.8543,241.8543,71.3513,-158.46856,-999.00,1.1,-999.0,no,yes,no,300234011887340,SVP,AWI,unknown,North
2012-08-28T21:01:52Z,1346187712,2012,21,1,241.8763,241.8763,71.34937,-158.45644,-999.00,1.1,-999.0,no,yes,no,300234011887340,SVP,AWI,unknown,North
2012-08-28T21:30:05Z,1346189406,2012,21,30,241.8959,241.8959,71.34754,-158.44673,-999.00,1.15,-999.0,no,yes,no,300234011887340,SVP,AWI,unknown,North
2012-08-28T22:00:11Z,1346191212,2012,22,0,241.9168,241.9168,71.34583,-158.43814,-999.00,1.15,-999.0,no,yes,no,300234011887340,SVP,AWI,unknown,North
2012-08-28T22:30:08Z,1346193009,2012,22,30,241.9376,241.9376,71.34434,-158.42996,-999.00,1.15,-999.0,no,yes,no,300234011887340,SVP,AWI,unknown,North
2012-08-28T23:00:05Z,1346194806,2012,23,0,241.9584,241.9584,71.34336,-158.42245,-999.00,1.2,-999.0,no,yes,no,300234011887340,SVP,AWI,unknown,North
2012-08-28T23:30:11Z,1346196612,2012,23,30,241.9793,241.9793,71.34286,-158.41569,-999.00,1.2,-999.0,no,yes,no,300234011887340,SVP,AWI,unknown,North
2012-08-29T00:01:35Z,1346198495,2012,0,1,242.0011,242.0011,71.34297,-158.40919,-999.00,1.25,-999.0,no,yes,no,300234011887340,SVP,AWI,unknown,North
2012-08-29T00:30:05Z,1346200206,2012,0,30,242.0209,242.0209,71.34336,-158.40263,-999.00,1.25,-999.0,no,yes,no,300234011887340,SVP,AWI,unknown,North
2012-08-29T01:00:20Z,1346202020,2012,1,0,242.0419,242.0419,71.34399,-158.39493,-999.00,1.25,-999.0,no,yes,no,300234011887340,SVP,AWI,unknown,North
2012-08-29T01:30:08Z,1346203809,2012,1,30,242.0626,242.0626,71.34501,-158.38653,-999.00,1.3,-999.0,no,yes,no,300234011887340,SVP,AWI,unknown,North
2012-08-29T02:00:05Z,1346205606,2012,2,0,242.0834,242.0834,71.34562,-158.37789,-999.00,1.3,-999.0,no,yes,no,300234011887340,SVP,AWI,unknown,North
2012-08-29T02:31:03Z,1346207463,2012,2,31,242.1049,242.1049,71.34637,-158.36833,-999.00,1.3,-999.0,no,yes,no,300234011887340,SVP,AWI,unknown,North
2012-08-29T03:00:08Z,1346209209,2012,3,0,242.1251,242.1251,71.3468,-158.35961,-999.00,1.3,-999.0,no,yes,no,300234011887340,SVP,AWI,unknown,North
2012-08-29T03:30:48Z,1346211049,2012,3,30,242.1464,242.1464,71.34799,-158.34966,-999.00,1.3,-999.0,no,yes,no,300234011887340,SVP,AWI,unknown,North
2012-08-29T04:00:02Z,1346212803,2012,4,0,242.1667,242.1667,71.34904,-158.34042,-999.00,1.3,-999.0,no,yes,no,300234011887340,SVP,AWI,unknown,North
2012-08-29T04:30:08Z,1346214609,2012,4,30,242.1876,242.1876,71.34991,-158.33068,-999.00,1.3,-999.0,no,yes,no,300234011887340,SVP,AWI,unknown,North
2012-08-29T05:00:05Z,1346216406,2012,5,0,242.2084,242.2084,71.35078,-158.32127,-999.00,1.3,-999.0,no,yes,no,300234011887340,SVP,AWI,unknown,North
2012-08-29T05:30:11Z,1346218212,2012,5,30,242.2293,242.2293,71.35256,-158.31089,-999.00,1.3,-999.0,no,yes,no,300234011887340,SVP,AWI,unknown,North
2012-08-29T06:00:34Z,1346220035,2012,6,0,242.2504,242.2504,71.3543,-158.29939,-999.00,1.3,-999.0,no,yes,no,300234011887340,SVP,AWI,unknown,North
2012-08-29T06:30:14Z,1346221814,2012,6,30,242.271,242.271,71.3562,-158.28677,-999.00,1.25,-999.0,no,yes,no,300234011887340,SVP,AWI,unknown,North
2012-08-29T07:00:02Z,1346223603,2012,7,0,242.2917,242.2917,71.35822,-158.27299,-999.00,1.25,-999.0,no,yes,no,300234011887340,SVP,AWI,unknown,North
2012-08-29T07:30:08Z,1346225409,2012,7,30,242.3126,242.3126,71.36039,-158.25892,-999.00,1.3,-999.0,no,yes,no,300234011887340,SVP,AWI,unknown,North
2012-08-29T08:00:05Z,1346227206,2012,8,0,242.3334,242.3334,71.36251,-158.24353,-999.00,1.3,-999.0,no,yes,no,300234011887340,SVP,AWI,unknown,North
2012-08-29T08:30:11Z,1346229012,2012,8,30,242.3543,242.3543,71.36393,-158.22824,-999.00,1.3,-999.0,no,yes,no,300234011887340,SVP,AWI,unknown,North
2012-08-29T09:00:34Z,1346230835,2012,9,0,242.3754,242.3754,71.36492,-158.21397,-999.00,1.35,-999.0,no,yes,no,300234011887340,SVP,AWI,unknown,North
2012-08-29T09:30:05Z,1346232606,2012,9,30,242.3959,242.3959,71.3664,-158.20153,-999.00,1.35,-999.0,no,yes,no,300234011887340,SVP,AWI,unknown,North
2012-08-29T10:00:11Z,1346234412,2012,10,0,242.4168,242.4168,71.3674,-158.18969,-999.00,1.35,-999.0,no,yes,no,300234011887340,SVP,AWI,unknown,North
2012-08-29T10:30:08Z,1346236209,2012,10,30,242.4376,242.4376,71.36842,-158.17841,-999.00,1.35,-999.0,no,yes,no,300234011887340,SVP,AWI,unknown,North
2012-08-29T11:00:05Z,1346238006,2012,11,0,242.4584,242.4584,71.3697,-158.16712,-999.00,1.35,-999.0,no,yes,no,300234011887340,SVP,AWI,unknown,North
2012-08-29T11:30:11Z,1346239812,2012,11,30,242.4793,242.4793,71.37082,-158.15662,-999.00,1.35,-999.0,no,yes,no,300234011887340,SVP,AWI,unknown,North
2012-08-29T12:01:00Z,1346241660,2012,12,1,242.5007,242.5007,71.37195,-158.14655,-999.00,1.35,-999.0,no,yes,no,300234011887340,SVP,AWI,unknown,North
2012-08-29T12:30:05Z,1346243406,2012,12,30,242.5209,242.5209,71.37321,-158.13845,-999.00,1.35,-999.0,no,yes,no,300234011887340,SVP,AWI,unknown,North
2012-08-29T13:00:11Z,1346245212,2012,13,0,242.5418,242.5418,71.37415,-158.13046,-999.00,1.35,-999.0,no,yes,no,300234011887340,SVP,AWI,unknown,North
2012-08-29T13:30:08Z,1346247009,2012,13,30,242.5626,242.5626,71.37499,-158.12385,-999.00,1.35,-999.0,no,yes,no,300234011887340,SVP,AWI,unknown,North
2012-08-29T14:00:05Z,1346248806,2012,14,0,242.5834,242.5834,71.37591,-158.11854,-999.00,1.3,-999.0,no,yes,no,300234011887340,SVP,AWI,unknown,North
2012-08-29T14:30:11Z,1346250612,2012,14,30,242.6043,242.6043,71.37731,-158.11474,-999.00,1.3,-999.0,no,yes,no,300234011887340,SVP,AWI,unknown,North
2012-08-29T15:00:34Z,1346252435,2012,15,0,242.6254,242.6254,71.37907,-158.11074,-999.00,1.3,-999.0,no,yes,no,300234011887340,SVP,AWI,unknown,North
2012-08-29T15:30:05Z,1346254206,2012,15,30,242.6459,242.6459,71.38042,-158.10747,-999.00,1.3,-999.0,no,yes,no,300234011887340,SVP,AWI,unknown,North
2012-08-29T16:00:37Z,1346256037,2012,16,0,242.6671,242.6671,71.38206,-158.10457,-999.00,1.3,-999.0,no,yes,no,300234011887340,SVP,AWI,unknown,North
2012-08-29T16:30:08Z,1346257809,2012,16,30,242.6876,242.6876,71.38364,-158.10224,-999.00,1.3,-999.0,no,yes,no,300234011887340,SVP,AWI,unknown,North
2012-08-29T17:00:05Z,1346259606,2012,17,0,242.7084,242.7084,71.38504,-158.10061,-999.00,1.3,-999.0,no,yes,no,300234011887340,SVP,AWI,unknown,North
2012-08-29T17:31:29Z,1346261489,2012,17,31,242.7302,242.7302,71.38659,-158.09833,-999.00,1.3,-999.0,no,yes,no,300234011887340,SVP,AWI,unknown,North
2012-08-29T18:00:08Z,1346263209,2012,18,0,242.7501,242.7501,71.38799,-158.09565,-999.00,1.25,-999.0,no,yes,no,300234011887340,SVP,AWI,unknown,North
2012-08-29T18:30:05Z,1346265006,2012,18,30,242.7709,242.7709,71.38923,-158.09277,-999.00,1.25,-999.0,no,yes,no,300234011887340,SVP,AWI,unknown,North
2012-08-29T19:01:29Z,1346266889,2012,19,1,242.7927,242.7927,71.39033,-158.08958,-999.00,1.25,-999.0,no,yes,no,300234011887340,SVP,AWI,unknown,North
2012-08-29T19:30:08Z,1346268609,2012,19,30,242.8126,242.8126,71.39134,-158.08626,-999.00,1.25,-999.0,no,yes,no,300234011887340,SVP,AWI,unknown,North
2012-08-29T20:00:05Z,1346270406,2012,20,0,242.8334,242.8334,71.39241,-158.08264,-999.00,1.25,-999.0,no,yes,no,300234011887340,SVP,AWI,unknown,North
2012-08-29T20:30:11Z,1346272212,2012,20,30,242.8543,242.8543,71.39369,-158.07856,-999.00,1.25,-999.0,no,yes,no,300234011887340,SVP,AWI,unknown,North
2012-08-29T21:00:08Z,1346274009,2012,21,0,242.8751,242.8751,71.39468,-158.07379,-999.00,1.3,-999.0,no,yes,no,300234011887340,SVP,AWI,unknown,North
2012-08-29T21:31:40Z,1346275901,2012,21,31,242.897,242.897,71.39532,-158.06998,-999.00,1.3,-999.0,no,yes,no,300234011887340,SVP,AWI,unknown,North
2012-08-29T22:00:37Z,1346277637,2012,22,0,242.9171,242.9171,71.39615,-158.06604,-999.00,1.35,-999.0,no,yes,no,300234011887340,SVP,AWI,unknown,North
2012-08-29T22:30:08Z,1346279409,2012,22,30,242.9376,242.9376,71.39648,-158.06207,-999.00,1.4,-999.0,no,yes,no,300234011887340,SVP,AWI,unknown,North
2012-08-29T23:00:05Z,1346281206,2012,23,0,242.9584,242.9584,71.39678,-158.05866,-999.00,1.4,-999.0,no,yes,no,300234011887340,SVP,AWI,unknown,North
2012-08-29T23:30:11Z,1346283012,2012,23,30,242.9793,242.9793,71.39702,-158.05536,-999.00,1.4,-999.0,no,yes,no,300234011887340,SVP,AWI,unknown,North
2012-08-30T00:00:08Z,1346284809,2012,0,0,243.0001,243.0001,71.39714,-158.05234,-999.00,1.45,-999.0,no,yes,no,300234011887340,SVP,AWI,unknown,North
2012-08-30T00:30:05Z,1346286606,2012,0,30,243.0209,243.0209,71.39696,-158.05021,-999.00,1.5,-999.0,no,yes,no,300234011887340,SVP,AWI,unknown,North
2012-08-30T01:00:11Z,1346288412,2012,1,0,243.0418,243.0418,71.39664,-158.04974,-999.00,1.55,-999.0,no,yes,no,300234011887340,SVP,AWI,unknown,North
2012-08-30T01:30:17Z,1346290217,2012,1,30,243.0627,243.0627,71.39615,-158.05088,-999.00,1.6,-999.0,no,yes,no,300234011887340,SVP,AWI,unknown,North
2012-08-30T02:01:40Z,1346292101,2012,2,1,243.0845,243.0845,71.39533,-158.05421,-999.00,1.65,-999.0,no,yes,no,300234011887340,SVP,AWI,unknown,North
2012-08-30T02:30:11Z,1346293812,2012,2,30,243.1043,243.1043,71.39497,-158.05825,-999.00,1.8,-999.0,no,yes,no,300234011887340,SVP,AWI,unknown,North
2012-08-30T03:00:08Z,1346295609,2012,3,0,243.1251,243.1251,71.39481,-158.06308,-999.00,1.8,-999.0,no,yes,no,300234011887340,SVP,AWI,unknown,North
2012-08-30T03:30:05Z,1346297406,2012,3,30,243.1459,243.1459,71.39451,-158.06921,-999.00,1.85,-999.0,no,yes,no,300234011887340,SVP,AWI,unknown,North
2012-08-30T04:03:21Z,1346299402,2012,4,3,243.169,243.169,71.39388,-158.07703,-999.00,1.95,-999.0,no,yes,no,300234011887340,SVP,AWI,unknown,North
2012-08-30T04:30:08Z,1346301009,2012,4,30,243.1876,243.1876,71.39364,-158.08288,-999.00,2.1,-999.0,no,yes,no,300234011887340,SVP,AWI,unknown,North
2012-08-30T05:00:05Z,1346302806,2012,5,0,243.2084,243.2084,71.39309,-158.08891,-999.00,2.1,-999.0,no,yes,no,300234011887340,SVP,AWI,unknown,North
2012-08-30T05:30:11Z,1346304612,2012,5,30,243.2293,243.2293,71.39187,-158.09315,-999.00,2.25,-999.0,no,yes,no,300234011887340,SVP,AWI,unknown,North
2012-08-30T06:02:52Z,1346306573,2012,6,2,243.252,243.252,71.39013,-158.09822,-999.00,2.35,-999.0,no,yes,no,300234011887340,SVP,AWI,unknown,North
2012-08-30T06:30:05Z,1346308206,2012,6,30,243.2709,243.2709,71.38843,-158.10168,-999.00,2.45,-999.0,no,yes,no,300234011887340,SVP,AWI,unknown,North
2012-08-30T07:00:11Z,1346310012,2012,7,0,243.2918,243.2918,71.38669,-158.10449,-999.00,2.65,-999.0,no,yes,no,300234011887340,SVP,AWI,unknown,North
2012-08-30T07:30:08Z,1346311809,2012,7,30,243.3126,243.3126,71.38547,-158.10168,-999.00,3.0,-999.0,no,yes,no,300234011887340,SVP,AWI,unknown,North
2012-08-30T08:00:05Z,1346313606,2012,8,0,243.3334,243.3334,71.38526,-158.09526,-999.00,3.05,-999.0,no,yes,no,300234011887340,SVP,AWI,unknown,North
2012-08-30T08:30:28Z,1346315429,2012,8,30,243.3545,243.3545,71.38583,-158.08695,-999.00,3.05,-999.0,no,yes,no,300234011887340,SVP,AWI,unknown,North
2012-08-30T09:03:27Z,1346317407,2012,9,3,243.3774,243.3774,71.38748,-158.07753,-999.00,3.05,-999.0,no,yes,no,300234011887340,SVP,AWI,unknown,North
2012-08-30T09:30:05Z,1346319006,2012,9,30,243.3959,243.3959,71.38841,-158.07226,-999.00,2.85,-999.0,no,yes,no,300234011887340,SVP,AWI,unknown,North
2012-08-30T10:00:11Z,1346320812,2012,10,0,243.4168,243.4168,71.38921,-158.06474,-999.00,2.8,-999.0,no,yes,no,300234011887340,SVP,AWI,unknown,North
2012-08-30T10:30:08Z,1346322609,2012,10,30,243.4376,243.4376,71.39059,-158.05343,-999.00,2.85,-999.0,no,yes,no,300234011887340,SVP,AWI,unknown,North
2012-08-30T11:00:05Z,1346324406,2012,11,0,243.4584,243.4584,71.39183,-158.04127,-999.00,2.85,-999.0,no,yes,no,300234011887340,SVP,AWI,unknown,North
2012-08-30T11:30:11Z,1346326212,2012,11,30,243.4793,243.4793,71.39193,-158.03319,-999.00,2.75,-999.0,no,yes,no,300234011887340,SVP,AWI,unknown,North
2012-08-30T12:03:01Z,1346328181,2012,12,3,243.5021,243.5021,71.39303,-158.01931,-999.00,2.9,-999.0,no,yes,no,300234011887340,SVP,AWI,unknown,North
2012-08-30T12:30:05Z,1346329806,2012,12,30,243.5209,243.5209,71.39466,-158.00626,-999.00,2.85,-999.0,no,yes,no,300234011887340,SVP,AWI,unknown,North
2012-08-30T13:00:11Z,1346331612,2012,13,0,243.5418,243.5418,71.39564,-157.99892,-999.00,2.7,-999.0,no,yes,no,300234011887340,SVP,AWI,unknown,North
2012-08-30T13:30:08Z,1346333409,2012,13,30,243.5626,243.5626,71.39611,-157.98988,-999.00,2.75,-999.0,no,yes,no,300234011887340,SVP,AWI,unknown,North
2012-08-30T14:01:32Z,1346335292,2012,14,1,243.5844,243.5844,71.39636,-157.98276,-999.00,2.75,-999.0,no,yes,no,300234011887340,SVP,AWI,unknown,North
2012-08-30T14:30:02Z,1346337003,2012,14,30,243.6042,243.6042,71.39679,-157.97804,-999.00,2.75,-999.0,no,yes,no,300234011887340,SVP,AWI,unknown,North
2012-08-30T15:00:08Z,1346338809,2012,15,0,243.6251,243.6251,71.39738,-157.97377,-999.00,2.7,-999.0,no,yes,no,300234011887340,SVP,AWI,unknown,North
2012-08-30T15:30:05Z,1346340606,2012,15,30,243.6459,243.6459,71.39805,-157.9712,-999.00,2.7,-999.0,no,yes,no,300234011887340,SVP,AWI,unknown,North
2012-08-30T16:00:11Z,1346342412,2012,16,0,243.6668,243.6668,71.39857,-157.9689,-999.00,2.7,-999.0,no,yes,no,300234011887340,SVP,AWI,unknown,North
2012-08-30T16:30:08Z,1346344209,2012,16,30,243.6876,243.6876,71.39929,-157.96714,-999.00,2.75,-999.0,no,yes,no,300234011887340,SVP,AWI,unknown,North
2012-08-30T17:00:05Z,1346346006,2012,17,0,243.7084,243.7084,71.39983,-157.96493,-999.00,2.75,-999.0,no,yes,no,300234011887340,SVP,AWI,unknown,North
2012-08-30T17:30:02Z,1346347803,2012,17,30,243.7292,243.7292,71.39493,-157.9369,-999.00,2.75,-999.0,no,yes,no,300234011887340,SVP,AWI,unknown,North
2012-08-30T18:00:08Z,1346349609,2012,18,0,243.7501,243.7501,71.4008,-157.9538,-999.00,2.75,-999.0,no,yes,no,300234011887340,SVP,AWI,unknown,North
2012-08-30T18:30:14Z,1346351414,2012,18,30,243.771,243.771,71.40121,-157.94813,-999.00,2.8,-999.0,no,yes,no,300234011887340,SVP,AWI,unknown,North
2012-08-30T19:00:11Z,1346353212,2012,19,0,243.7918,243.7918,71.40196,-157.94274,-999.00,2.8,-999.0,no,yes,no,300234011887340,SVP,AWI,unknown,North
2012-08-30T19:30:08Z,1346355009,2012,19,30,243.8126,243.8126,71.40264,-157.93659,-999.00,2.8,-999.0,no,yes,no,300234011887340,SVP,AWI,unknown,North
2012-08-30T20:02:32Z,1346356953,2012,20,2,243.8351,243.8351,71.40328,-157.92917,-999.00,2.8,-999.0,no,yes,no,300234011887340,SVP,AWI,unknown,North
2012-08-30T20:30:11Z,1346358612,2012,20,30,243.8543,243.8543,71.4035,-157.92259,-999.00,2.8,-999.0,no,yes,no,300234011887340,SVP,AWI,unknown,North
2012-08-30T21:00:08Z,1346360409,2012,21,0,243.8751,243.8751,71.40337,-157.91658,-999.00,2.85,-999.0,no,yes,no,300234011887340,SVP,AWI,unknown,North
2012-08-30T21:30:05Z,1346362206,2012,21,30,243.8959,243.8959,71.40319,-157.91128,-999.00,2.85,-999.0,no,yes,no,300234011887340,SVP,AWI,unknown,North
2012-08-30T22:00:11Z,1346364012,2012,22,0,243.9168,243.9168,71.40258,-157.90625,-999.00,2.85,-999.0,no,yes,no,300234011887340,SVP,AWI,unknown,North
2012-08-30T22:30:17Z,1346365817,2012,22,30,243.9377,243.9377,71.4021,-157.90163,-999.00,2.85,-999.0,no,yes,no,300234011887340,SVP,AWI,unknown,North
2012-08-30T23:00:05Z,1346367606,2012,23,0,243.9584,243.9584,71.40138,-157.89804,-999.00,2.85,-999.0,no,yes,no,300234011887340,SVP,AWI,unknown,North
2012-08-30T23:30:11Z,1346369412,2012,23,30,243.9793,243.9793,71.40073,-157.89507,-999.00,2.85,-999.0,no,yes,no,300234011887340,SVP,AWI,unknown,North
2012-08-31T00:00:08Z,1346371209,2012,0,0,244.0001,244.0001,71.4003,-157.89316,-999.00,2.9,-999.0,no,yes,no,300234011887340,SVP,AWI,unknown,North
2012-08-31T00:30:05Z,1346373006,2012,0,30,244.0209,244.0209,71.39985,-157.89153,-999.00,2.95,-999.0,no,yes,no,300234011887340,SVP,AWI,unknown,North
2012-08-31T01:00:02Z,1346374803,2012,1,0,244.0417,244.0417,71.39952,-157.89048,-999.00,3.0,-999.0,no,yes,no,300234011887340,SVP,AWI,unknown,North
2012-08-31T01:30:08Z,1346376609,2012,1,30,244.0626,244.0626,71.39939,-157.89034,-999.00,3.05,-999.0,no,yes,no,300234011887340,SVP,AWI,unknown,North
2012-08-31T02:03:07Z,1346378587,2012,2,3,244.0855,244.0855,71.3999,-157.89049,-999.00,3.05,-999.0,no,yes,no,300234011887340,SVP,AWI,unknown,North
2012-08-31T02:30:20Z,1346380220,2012,2,30,244.1044,244.1044,71.40053,-157.88871,-999.00,3.1,-999.0,no,yes,no,300234011887340,SVP,AWI,unknown,North
2012-08-31T03:01:26Z,1346382086,2012,3,1,244.126,244.126,71.40217,-157.88849,-999.00,3.25,-999.0,no,yes,no,300234011887340,SVP,AWI,unknown,North
2012-08-31T03:30:14Z,1346383814,2012,3,30,244.146,244.146,71.40296,-157.88905,-999.00,3.4,-999.0,no,yes,no,300234011887340,SVP,AWI,unknown,North
2012-08-31T04:00:11Z,1346385612,2012,4,0,244.1668,244.1668,71.40385,-157.88856,-999.00,3.55,-999.0,no,yes,no,300234011887340,SVP,AWI,unknown,North
2012-08-31T04:30:08Z,1346387409,2012,4,30,244.1876,244.1876,71.40466,-157.89001,-999.00,3.55,-999.0,no,yes,no,300234011887340,SVP,AWI,unknown,North
2012-08-31T05:00:05Z,1346389206,2012,5,0,244.2084,244.2084,71.40502,-157.89229,-999.00,3.6,-999.0,no,yes,no,300234011887340,SVP,AWI,unknown,North
2012-08-31T05:30:11Z,1346391012,2012,5,30,244.2293,244.2293,71.40514,-157.89595,-999.00,3.65,-999.0,no,yes,no,300234011887340,SVP,AWI,unknown,North
2012-08-31T06:03:10Z,1346392990,2012,6,3,244.2522,244.2522,71.40472,-157.90364,-999.00,3.65,-999.0,no,yes,no,300234011887340,SVP,AWI,unknown,North
2012-08-31T06:30:05Z,1346394606,2012,6,30,244.2709,244.2709,71.40412,-157.91226,-999.00,3.95,-999.0,no,yes,no,300234011887340,SVP,AWI,unknown,North
2012-08-31T07:00:11Z,1346396412,2012,7,0,244.2918,244.2918,71.40313,-157.92427,-999.00,4.2,-999.0,no,yes,no,300234011887340,SVP,AWI,unknown,North
2012-08-31T07:30:08Z,1346398209,2012,7,30,244.3126,244.3126,71.40195,-157.93861,-999.00,4.5,-999.0,no,yes,no,300234011887340,SVP,AWI,unknown,North
2012-08-31T08:00:05Z,1346400006,2012,8,0,244.3334,244.3334,71.40098,-157.95329,-999.00,5.05,-999.0,no,yes,no,300234011887340,SVP,AWI,unknown,North
2012-08-31T08:30:28Z,1346401829,2012,8,30,244.3545,244.3545,71.39991,-157.96841,-999.00,5.15,-999.0,no,yes,no,300234011887340,SVP,AWI,unknown,North
2012-08-31T09:00:08Z,1346403609,2012,9,0,244.3751,244.3751,71.3989,-157.98491,-999.00,5.25,-999.0,no,yes,no,300234011887340,SVP,AWI,unknown,North
2012-08-31T09:30:05Z,1346405406,2012,9,30,244.3959,244.3959,71.39819,-158.00188,-999.00,5.35,-999.0,no,yes,no,300234011887340,SVP,AWI,unknown,North
2012-08-31T10:00:11Z,1346407212,2012,10,0,244.4168,244.4168,71.397,-158.01855,-999.00,5.4,-999.0,no,yes,no,300234011887340,SVP,AWI,unknown,North
2012-08-31T10:30:08Z,1346409009,2012,10,30,244.4376,244.4376,71.39614,-158.03408,-999.00,5.5,-999.0,no,yes,no,300234011887340,SVP,AWI,unknown,North
2012-08-31T11:00:05Z,1346410806,2012,11,0,244.4584,244.4584,71.39658,-158.04455,-999.00,5.4,-999.0,no,yes,no,300234011887340,SVP,AWI,unknown,North
2012-08-31T11:30:11Z,1346412612,2012,11,30,244.4793,244.4793,71.39742,-158.05423,-999.00,5.3,-999.0,no,yes,no,300234011887340,SVP,AWI,unknown,North
2012-08-31T12:02:09Z,1346414530,2012,12,2,244.5015,244.5015,71.3982,-158.06411,-999.00,5.25,-999.0,no,yes,no,300234011887340,SVP,AWI,unknown,North
2012-08-31T12:30:31Z,1346416232,2012,12,30,244.5212,244.5212,71.39887,-158.07342,-999.00,5.25,-999.0,no,yes,no,300234011887340,SVP,AWI,unknown,North
2012-08-31T13:00:20Z,1346418020,2012,13,0,244.5419,244.5419,71.39993,-158.08311,-999.00,5.2,-999.0,no,yes,no,300234011887340,SVP,AWI,unknown,North
2012-08-31T13:30:08Z,1346419809,2012,13,30,244.5626,244.5626,71.40124,-158.092,-999.00,5.1,-999.0,no,yes,no,300234011887340,SVP,AWI,unknown,North
2012-08-31T14:00:05Z,1346421606,2012,14,0,244.5834,244.5834,71.40276,-158.10168,-999.00,4.9,-999.0,no,yes,no,300234011887340,SVP,AWI,unknown,North
2012-08-31T14:30:11Z,1346423412,2012,14,30,244.6043,244.6043,71.40454,-158.11353,-999.00,4.9,-999.0,no,yes,no,300234011887340,SVP,AWI,unknown,North
2012-08-31T15:00:08Z,1346425209,2012,15,0,244.6251,244.6251,71.40549,-158.12889,-999.00,4.95,-999.0,no,yes,no,300234011887340,SVP,AWI,unknown,North
2012-08-31T15:32:24Z,1346427144,2012,15,32,244.6475,244.6475,71.40645,-158.14135,-999.00,4.85,-999.0,no,yes,no,300234011887340,SVP,AWI,unknown,North
2012-08-31T16:03:38Z,1346429019,2012,16,3,244.6692,244.6692,71.408,-158.15316,-999.00,4.6,-999.0,no,yes,no,300234011887340,SVP,AWI,unknown,North
2012-08-31T16:30:08Z,1346430609,2012,16,30,244.6876,244.6876,71.40932,-158.16436,-999.00,4.4,-999.0,no,yes,no,300234011887340,SVP,AWI,unknown,North
2012-08-31T17:00:05Z,1346432406,2012,17,0,244.7084,244.7084,71.41043,-158.17763,-999.00,4.3,-999.0,no,yes,no,300234011887340,SVP,AWI,unknown,North
2012-08-31T17:30:11Z,1346434212,2012,17,30,244.7293,244.7293,71.41169,-158.19149,-999.00,4.25,-999.0,no,yes,no,300234011887340,SVP,AWI,unknown,North
2012-08-31T18:00:08Z,1346436009,2012,18,0,244.7501,244.7501,71.41315,-158.20632,-999.00,4.25,-999.0,no,yes,no,300234011887340,SVP,AWI,unknown,North
2012-08-31T18:30:14Z,1346437814,2012,18,30,244.771,244.771,71.41447,-158.22161,-999.00,4.35,-999.0,no,yes,no,300234011887340,SVP,AWI,unknown,North
2012-08-31T19:00:11Z,1346439612,2012,19,0,244.7918,244.7918,71.41564,-158.23709,-999.00,4.5,-999.0,no,yes,no,300234011887340,SVP,AWI,unknown,North
2012-08-31T19:30:17Z,1346441417,2012,19,30,244.8127,244.8127,71.41668,-158.2504,-999.00,4.55,-999.0,no,yes,no,300234011887340,SVP,AWI,unknown,North
2012-08-31T20:00:05Z,1346443206,2012,20,0,244.8334,244.8334,71.41667,-158.25043,-999.00,4.45,-999.0,no,yes,no,300234011887340,SVP,AWI,unknown,North
2012-08-31T20:30:11Z,1346445012,2012,20,30,244.8543,244.8543,71.41891,-158.2769,-999.00,4.45,-999.0,no,yes,no,300234011887340,SVP,AWI,unknown,North
2012-08-31T21:00:08Z,1346446809,2012,21,0,244.8751,244.8751,71.41988,-158.29014,-999.00,4.5,-999.0,no,yes,no,300234011887340,SVP,AWI,unknown,North
2012-08-31T21:30:05Z,1346448606,2012,21,30,244.8959,244.8959,71.42063,-158.30318,-999.00,4.5,-999.0,no,yes,no,300234011887340,SVP,AWI,unknown,North
2012-08-31T22:00:11Z,1346450412,2012,22,0,244.9168,244.9168,71.42082,-158.31528,-999.00,4.5,-999.0,no,yes,no,300234011887340,SVP,AWI,unknown,North
2012-08-31T22:30:08Z,1346452209,2012,22,30,244.9376,244.9376,71.42073,-158.32816,-999.00,4.5,-999.0,no,yes,no,300234011887340,SVP,AWI,unknown,North
2012-08-31T23:00:05Z,1346454006,2012,23,0,244.9584,244.9584,71.42048,-158.34215,-999.00,4.6,-999.0,no,yes,no,300234011887340,SVP,AWI,unknown,North
2012-08-31T23:31:29Z,1346455889,2012,23,31,244.9802,244.9802,71.42016,-158.35873,-999.00,4.7,-999.0,no,yes,no,300234011887340,SVP,AWI,unknown,North
2012-09-01T00:00:00Z,1346457600,2012,0,0,245.0,245.0,71.42016,-158.35876,-999.00,4.8,-999.0,no,yes,no,300234011887340,SVP,AWI,unknown,North
2012-09-01T00:30:05Z,1346459406,2012,0,30,245.0209,245.0209,71.41927,-158.39393,-999.00,4.9,-999.0,no,yes,no,300234011887340,SVP,AWI,unknown,North
2012-09-01T01:00:11Z,1346461212,2012,1,0,245.0418,245.0418,71.41864,-158.41254,-999.00,5.1,-999.0,no,yes,no,300234011887340,SVP,AWI,unknown,North